Regional Weather Roundup
Issued by NWS

Home | Current Version | Previous Version | Text Only | Print | Product List | Glossary On
Versions: 1 2 3 4 5 6 7 8 9 10 11 12 13 14 15 16 17 18 19 20 21 22 23 24 25 26 27 28 29 30 31 32 33 34 35 36 37 38 39 40 41 42 43 44 45 46 47 48 49 50
000
ASUS43 KDTX 120001
RWRMI
MICHIGAN HOURLY REGIONAL WEATHER ROUNDUP
NATIONAL WEATHER SERVICE DETROIT/PONTIAC MI
800 PM EDT FRI JUL 11 2014

NOTE: "FAIR" INDICATES FEW OR NO CLOUDS BELOW 12,000 FEET WITH NO
SIGNIFICANT WEATHER AND/OR OBSTRUCTION TO VISIBILITY.

MIZ047>049-052>055-059>063-066>070-074>076-081>083-120100-
SOUTHEAST LOWER MICHIGAN

CITY           SKY/WX    TMP DP  RH WIND       PRES   REMARKS
ADRIAN         PTSUNNY   76  59  55 S5        30.16S
6HR MIN TEMP:  76; 6HR MAX TEMP:  81;

ALMA           PTSUNNY   77  53  43 SW6       30.14S
ANN ARBOR      MOSUNNY   74  57  55 SE5       30.16S
BAD AXE        PTSUNNY   73  60  62 CALM      30.16R
6HR MIN TEMP:  73; 6HR MAX TEMP:  78;

CARO           CLOUDY    78  60  54 CALM      30.14F
DETROIT CITY   MOSUNNY   78  53  41 S8        30.16S
6HR MIN TEMP:  78; 6HR MAX TEMP:  81;

DETROIT        PTSUNNY   75  56  51 SE6       30.16F
6HR MIN TEMP:  75; 6HR MAX TEMP:  80;

FLINT          MOSUNNY   78  57  48 SW6       30.16R
6HR MIN TEMP:  77; 6HR MAX TEMP:  81;

GROSSE ILE     MOSUNNY   73  59  60 SE6       30.15S
HILLSDALE      PTSUNNY   75  62  64 CALM      30.16S
6HR MIN TEMP:  75; 6HR MAX TEMP:  79;

HOWELL         PTSUNNY   74  57  56 S3        30.16S
6HR MIN TEMP:  74; 6HR MAX TEMP:  77;


CITY           SKY/WX    TMP DP  RH WIND       PRES   REMARKS
JACKSON        PTSUNNY   76  57  51 CALM      30.16R
6HR MIN TEMP:  76; 6HR MAX TEMP:  81;

LAMBERTVILLE   MOSUNNY   75  57  53 E3        30.17S
LANSING        CLOUDY    77  58  51 SW5       30.16R
6HR MIN TEMP:  75; 6HR MAX TEMP:  79;

LAPEER         FAIR      75  57  54 SE5       30.16S
MASON          PTSUNNY   75  59  58 CALM      30.16R
MONROE         MOSUNNY   73  57  56 E7        30.15S
MT. CLEMENS    PTSUNNY   74  60  63 SE10      30.15S
6HR MIN TEMP:  74; 6HR MAX TEMP:  78;

PONTIAC        CLOUDY    76  55  48 SW5       30.16S
6HR MIN TEMP:  75; 6HR MAX TEMP:  78;

PORT HOPE        N/A     69  60  73 SE5       30.15S
6HR MIN TEMP:  69; 6HR MAX TEMP:  73;

PORT HURON     MOSUNNY   72  61  68 CALM      30.17R
TRI CITIES     PTSUNNY   79  58  48 S5        30.15R
6HR MIN TEMP:  77; 6HR MAX TEMP:  80;

TROY           MOSUNNY   76  52  43 SE5       30.17S
SAGINAW HB     PTSUNNY   77  55  47 SW5       30.14S
$$
MIZ043>046-050>051-056>058-064>065-071>073-077>080-120100-
SOUTHWEST LOWER MICHIGAN

CITY           SKY/WX    TMP DP  RH WIND       PRES   REMARKS
BATTLE CREEK   CLOUDY    76  59  55 S5        30.15S
6HR MIN TEMP:  76; 6HR MAX TEMP:  80;

BENTON HARBOR  CLOUDY    70  62  76 CALM      30.13R
6HR MIN TEMP:  70; 6HR MAX TEMP:  78; 6HR PCP: TRACE;

BIG RAPIDS     MOSUNNY   74  56  52 SW5       30.14R
6HR MIN TEMP:  74; 6HR MAX TEMP:  79;

COLDWATER      CLOUDY    75  61  62 CALM      30.15S
6HR MIN TEMP:  75; 6HR MAX TEMP:  80;

FREMONT        FAIR      72  54  53 SW3       30.14R
6HR MIN TEMP:  72; 6HR MAX TEMP:  79;

HOLLAND        CLOUDY    73  60  63 CALM      30.14S
6HR MIN TEMP:  73; 6HR MAX TEMP:  79;

GRAND RAPIDS   CLOUDY    77  61  57 S5        30.13F
6HR MIN TEMP:  76; 6HR MAX TEMP:  81;

IONIA          FAIR      77  57  50 S6        30.13F
KALAMAZOO      LGT RAIN  76  58  53 S3        30.14S
6HR MIN TEMP:  76; 6HR MAX TEMP:  81; 6HR PCP: TRACE;

LUDINGTON      CLOUDY    71  59  65 SW6       30.14R
6HR MIN TEMP:  71; 6HR MAX TEMP:  77;

MARSHALL       CLOUDY    75  61  61 CALM      30.15R
MOUNT PLEASANT MOSUNNY   76  54  47 S3        30.13S
6HR MIN TEMP:  76; 6HR MAX TEMP:  79;

MUSKEGON       CLOUDY    74  53  48 SW3       30.14R
6HR MIN TEMP:  73; 6HR MAX TEMP:  78;

SOUTH HAVEN    LGT RAIN  71  62  74 CALM      30.14R
$$
MIZ016>042-120100-
NORTHERN LOWER MICHIGAN

CITY           SKY/WX    TMP DP  RH WIND       PRES   REMARKS
ALPENA         CLOUDY    72  58  61 S5        30.12R
6HR MIN TEMP:  72; 6HR MAX TEMP:  80;

BEAVER ISLAND  CLOUDY    70  55  58 SW10G18   30.09S
6HR MIN TEMP:  68; 6HR MAX TEMP:  74;

BELLAIRE       CLOUDY    74  63  69 CALM      30.10R
6HR MIN TEMP:  73; 6HR MAX TEMP:  82;

CADILLAC       CLOUDY    73  59  62 S6        30.13S
CHARLEVOIX     CLOUDY    73  59  62 W3        30.14R
6HR MIN TEMP:  73; 6HR MAX TEMP:  79;

FRANKFORT      CLOUDY    70  53  54 SW6       30.13R
GAYLORD        CLOUDY    73  59  61 S5        30.13S
6HR MIN TEMP:  73; 6HR MAX TEMP:  77; 6HR PCP: TRACE;

GRAYLING       PTSUNNY   73  55  52 S3        30.14S
6HR MIN TEMP:  73; 6HR MAX TEMP:  78;

HARBOR SPRINGS CLOUDY    67  60  79 CALM      30.10R
HOUGHTON LAKE  MOSUNNY   74  56  53 S8        30.14S
6HR MIN TEMP:  74; 6HR MAX TEMP:  80;

MANISTEE       CLOUDY    72  52  49 W5        30.14R
OSCODA         PTSUNNY   70  56  59 SE6       30.14S
PELLSTON       CLOUDY    72  61  68 CALM      30.11S
6HR MIN TEMP:  72; 6HR MAX TEMP:  79; 6HR PCP: TRACE;

ROGERS CITY    CLOUDY    73  62  67 CALM      30.12S
TRAVERSE CITY  CLOUDY    76  56  49 SW5       30.10R
6HR MIN TEMP:  76; 6HR MAX TEMP:  82;

$$
MIZ007>008-015-120100-
EASTERN UPPER MICHIGAN

CITY           SKY/WX    TMP DP  RH WIND       PRES   REMARKS
KINROSS        CLOUDY    66  59  77 CALM      30.12R
6HR MIN TEMP:  66; 6HR MAX TEMP:  73;

MACKINAC ISLAN CLOUDY    63  58  83 CALM      30.10S
6HR MIN TEMP:  63; 6HR MAX TEMP:  73;

NEWBERRY       CLOUDY    61  54  77 S5        30.08S
S. S. MARIE    CLOUDY    68  57  68 SE6       30.11S
6HR MIN TEMP:  68; 6HR MAX TEMP:  73; 6HR PCP: TRACE;

$$
MIZ004>006-011>014-085-120100-
CENTRAL UPPER MICHIGAN

CITY           SKY/WX    TMP DP  RH WIND       PRES   REMARKS
MANISTIQUE     CLOUDY    57  53  85 SW6       30.08R
6HR MIN TEMP:  57; 6HR MAX TEMP:  61;

ESCANABA       CLOUDY    70  57  64 S12       30.06R
6HR MIN TEMP:  68; 6HR MAX TEMP:  72;

MENOMINEE      PTSUNNY   73  59  60 SW10      30.05S
6HR MIN TEMP:  73; 6HR MAX TEMP:  79;

SAWYER-GWINN   CLOUDY    70  61  73 SW14      30.04R
$$
MIZ001>003-009>011-084-120100-
WESTERN UPPER MICHIGAN

CITY           SKY/WX    TMP DP  RH WIND       PRES   REMARKS
IRON MOUNTAIN  CLOUDY    73  55  53 S10       30.04S
6HR MIN TEMP:  72; 6HR MAX TEMP:  77; 6HR PCP: TRACE;

HOUGHTON       CLOUDY    69  62  78 SW6       29.96F
6HR MIN TEMP:  63; 6HR MAX TEMP:  70; 6HR PCP:  0.39;

COPPER HARBOR    N/A     68  62  81 W8        29.94F
6HR MIN TEMP:  63; 6HR MAX TEMP:  71; 6HR PCP:  0.20;

$$

ABBREVIATIONS USED IN REMARKS
   TC - TEMPERATURE IN CELSIUS
  WCI - WIND CHILL INDEX
   HX - HEAT INDEX
  VSB - VISIBILITY




USA.gov is the U.S. government's official web portal to all federal, state and local government web resources and services.